Location: Mizzole
(45.4833°N, 11.0500°E)
Time: 13:24:55
(UTC+00:00)

CZ-2D R/B - Pass Details

Date: 21 October 2019
Orbit: 522 x 538 km, 97.4° (Epoch: 13 November)

Event Time Altitude Azimuth Distance (km) Brightness Sun altitude
Exits shadow 17:51:53 - 160° (SSE) 2,188 6.2 -16.7°
Reaches altitude 10° 17:52:51 10° 158° (SSE) 1,780 5.7 -16.8°
Maximum altitude 17:56:40 70° 76° (ENE) 573 3.1 -17.5°
Drops below altitude 10° 18:00:33 10° 352° (N) 1,803 6.1 -18.2°
Sets 18:02:41 0° 350° (N) 2,701 7.0 -18.6°
